USA 40 R/B DEB

Satellite information

Favourite Embed

Satellite Type and Status

DEBRISIN ORBIT

Key statistics

Satellite USA 40 R/B DEB at a glance.

Uptime

13276

Days in orbit

Revolutions

≈ 9.3

Per day

Orbit

HEO

HEO

Inclination

57.0

Latest

Satellite identification and parameters

Extended collection of information and parameters for USA 40 R/B DEB.

Object identification

Identified? True

Debris? True

Object name: USA 40 R/B DEB

International designator: 1989-061BX

Object number (NORAD): 44524

Object ID (CCSDS): 44524

Country: UNITED STATES OF AMERICA (US)

Current information (Y/N): Y

RCS size: SMALL

Orbital parameters

Period: 154.327 minutes

Inclination: 57.0124 deg

SMA: 9530.622 km

Apoapsis: 5858.697 km

Periapsis: 446.276 km

RAAN: 139.5657 deg

Eccentricy: 0.28394899

Argument of periapsis: 113.0097 deg

Mean anomaly: 279.3368 deg

Mean motion: 9.33084387 rev/day

Mean motion (dot): 0.00035963 rev/day2

B* drag term: 0.013629013 1/REarth

Two-line elements (TLE)

Creation date: Dec. 11, 2025, 7:14 p.m.

Reference frame: TEME

Reference center: EARTH

Epoch: Dec. 11, 2025, 11:34 a.m. UTC

TLE line 0: 0 USA 40 R/B DEB

TLE line 1: 1 44524U 89061BX 25345.48216896 .00035963 00000-0 13629-1 0 9994

TLE line 2: 2 44524 57.0124 139.5657 2839490 113.0097 279.3368 9.33084387188642

Live tracking on map

Real-time ground track for satellite USA 40 R/B DEB.

In-orbit conjunctions

There are no conjunctions computed for USA 40 R/B DEB, at the moment. Check back to stay up to date, as we update our databases every day.

Go to all conjunctions

Associated space launch

STS-28 was the thirtieth space shuttle mission, the fourth dedicated to the Department of Defence and the eigth of the Space Shuttle Columbia.

USA 40 R/B DEB was lifted into orbit during the mission ‘Space Shuttle Columbia / OV-102 | STS-28’, on board a Space Shuttle space rocket.

The launch took place on Aug. 8, 1989, 12:37 p.m. from Launch Complex 39B.

For more information about the launch, click the button.

Launch to space Space Shuttle Columbia / OV-102 | STS-28
Space Shuttle Columbia / OV-102 | STS-28

Agency: N/A

Status: Launch Successful

Launch date: Aug. 8, 1989, 12:37 p.m. UTC

Rocket: Space Shuttle

Launch pad: Launch Complex 39B

Location: Kennedy Space Center, FL, USA

...

Latest news about this satellite

There are no fresh news available about this satellite. Check back as we update our databases every day.


Newsletter sign-up

Weekly statistics, charts and insights to help you stay on top of the space industry.